TimeEST,TemperatureF,Dew PointF,Humidity,Sea Level PressureIn,VisibilityMPH,Wind Direction,Wind SpeedMPH,Gust SpeedMPH,PrecipitationIn,Events,Conditions,WindDirDegrees,DateUTC
12:15 AM,35.6,19.4,52,30.10,10.0,NNE,3.5,-,N/A,,Clear,20,2012-01-19 05:15:00
12:35 AM,35.6,17.6,48,30.11,10.0,NNE,4.6,-,N/A,,Clear,30,2012-01-19 05:35:00
1:15 AM,35.6,17.6,48,30.10,10.0,NNE,5.8,-,N/A,,Scattered Clouds,30,2012-01-19 06:15:00
1:35 AM,35.6,17.6,48,30.10,10.0,NE,5.8,-,N/A,,Overcast,40,2012-01-19 06:35:00
1:55 AM,33.8,17.6,52,30.10,10.0,NE,4.6,-,N/A,,Overcast,40,2012-01-19 06:55:00
2:15 AM,33.8,17.6,52,30.10,10.0,NE,3.5,-,N/A,,Scattered Clouds,40,2012-01-19 07:15:00
2:35 AM,33.8,17.6,52,30.10,10.0,Calm,Calm,-,N/A,,Mostly Cloudy,0,2012-01-19 07:35:00
2:55 AM,33.8,17.6,52,30.11,10.0,North,4.6,-,N/A,,Overcast,10,2012-01-19 07:55:00
3:35 AM,32.0,17.6,55,30.12,10.0,Calm,Calm,-,N/A,,Clear,0,2012-01-19 08:35:00
3:55 AM,30.2,17.6,60,30.12,10.0,Calm,Calm,-,N/A,,Clear,0,2012-01-19 08:55:00
4:15 AM,28.4,17.6,64,30.14,10.0,Calm,Calm,-,N/A,,Clear,0,2012-01-19 09:15:00
4:35 AM,30.2,17.6,60,30.14,10.0,Calm,Calm,-,N/A,,Partly Cloudy,0,2012-01-19 09:35:00
4:55 AM,28.4,17.6,64,30.14,10.0,Calm,Calm,-,N/A,,Clear,0,2012-01-19 09:55:00
5:15 AM,28.4,17.6,64,30.15,10.0,Calm,Calm,-,N/A,,Clear,0,2012-01-19 10:15:00
5:35 AM,26.6,19.4,74,30.14,10.0,Calm,Calm,-,N/A,,Clear,0,2012-01-19 10:35:00
5:55 AM,28.4,17.6,64,30.14,10.0,Calm,Calm,-,N/A,,Clear,0,2012-01-19 10:55:00
6:15 AM,26.6,17.6,69,30.15,10.0,Calm,Calm,-,N/A,,Clear,0,2012-01-19 11:15:00
6:35 AM,26.6,17.6,69,30.17,10.0,Calm,Calm,-,N/A,,Clear,0,2012-01-19 11:35:00
6:55 AM,26.6,17.6,69,30.17,10.0,Calm,Calm,-,N/A,,Clear,0,2012-01-19 11:55:00
7:15 AM,24.8,17.6,74,30.18,10.0,Calm,Calm,-,N/A,,Clear,0,2012-01-19 12:15:00
7:35 AM,24.8,17.6,74,30.19,10.0,Calm,Calm,-,N/A,,Clear,0,2012-01-19 12:35:00
7:55 AM,26.6,19.4,74,30.21,10.0,Calm,Calm,-,N/A,,Clear,0,2012-01-19 12:55:00
8:15 AM,28.4,19.4,69,30.22,10.0,NE,3.5,-,N/A,,Clear,40,2012-01-19 13:15:00
8:35 AM,30.2,19.4,64,30.22,10.0,NE,4.6,-,N/A,,Clear,40,2012-01-19 13:35:00
8:55 AM,32.0,19.4,60,30.22,10.0,ENE,5.8,-,N/A,,Clear,60,2012-01-19 13:55:00
9:15 AM,33.8,19.4,56,30.22,10.0,ENE,6.9,-,N/A,,Clear,70,2012-01-19 14:15:00
9:35 AM,33.8,19.4,56,30.22,10.0,East,6.9,-,N/A,,Clear,90,2012-01-19 14:35:00
9:55 AM,35.6,19.4,52,30.22,10.0,East,4.6,-,N/A,,Clear,90,2012-01-19 14:55:00
10:15 AM,35.6,19.4,52,30.22,10.0,East,4.6,-,N/A,,Clear,100,2012-01-19 15:15:00
10:35 AM,37.4,19.4,48,30.21,10.0,SSE,3.5,-,N/A,,Clear,150,2012-01-19 15:35:00
10:55 AM,39.2,21.2,49,30.20,10.0,SE,5.8,-,N/A,,Clear,130,2012-01-19 15:55:00
11:15 AM,39.2,21.2,49,30.18,10.0,SSE,5.8,-,N/A,,Clear,150,2012-01-19 16:15:00
11:35 AM,41.0,21.2,45,30.18,10.0,SSE,4.6,-,N/A,,Clear,150,2012-01-19 16:35:00
11:55 AM,42.8,21.2,42,30.17,10.0,SSE,3.5,-,N/A,,Clear,160,2012-01-19 16:55:00
12:15 PM,44.6,21.2,39,30.17,10.0,Calm,Calm,-,N/A,,Clear,0,2012-01-19 17:15:00
12:35 PM,44.6,23.0,43,30.15,10.0,South,5.8,-,N/A,,Clear,170,2012-01-19 17:35:00
1:15 PM,46.4,24.8,43,30.13,10.0,SSW,5.8,-,N/A,,Clear,210,2012-01-19 18:15:00
1:35 PM,46.4,24.8,43,30.12,10.0,WSW,8.1,-,N/A,,Clear,240,2012-01-19 18:35:00
1:55 PM,48.2,24.8,40,30.11,10.0,SW,8.1,-,N/A,,Clear,220,2012-01-19 18:55:00
2:15 PM,48.2,24.8,40,30.11,10.0,SW,4.6,-,N/A,,Clear,220,2012-01-19 19:15:00
2:35 PM,50.0,26.6,40,30.11,10.0,WSW,8.1,-,N/A,,Clear,240,2012-01-19 19:35:00
2:55 PM,50.0,26.6,40,30.12,10.0,WSW,10.4,-,N/A,,Clear,250,2012-01-19 19:55:00
3:35 PM,50.0,26.6,40,30.12,10.0,WSW,6.9,-,N/A,,Clear,240,2012-01-19 20:35:00
3:55 PM,48.2,24.8,40,30.11,10.0,WSW,5.8,-,N/A,,Clear,240,2012-01-19 20:55:00
4:15 PM,48.2,26.6,43,30.11,10.0,SSW,8.1,-,N/A,,Clear,210,2012-01-19 21:15:00
4:35 PM,48.2,26.6,43,30.11,10.0,SSW,4.6,-,N/A,,Clear,210,2012-01-19 21:35:00
4:55 PM,46.4,26.6,46,30.11,10.0,SSW,4.6,-,N/A,,Clear,210,2012-01-19 21:55:00
5:15 PM,44.6,28.4,53,30.11,10.0,SSW,5.8,-,N/A,,Clear,200,2012-01-19 22:15:00
5:35 PM,44.6,28.4,53,30.11,10.0,SSW,4.6,-,N/A,,Clear,200,2012-01-19 22:35:00
5:55 PM,44.6,28.4,53,30.11,10.0,SSW,3.5,-,N/A,,Scattered Clouds,200,2012-01-19 22:55:00
6:15 PM,44.6,28.4,53,30.11,10.0,Calm,Calm,-,N/A,,Overcast,0,2012-01-19 23:15:00
6:35 PM,44.6,28.4,53,30.11,10.0,South,4.6,-,N/A,,Overcast,190,2012-01-19 23:35:00
6:55 PM,44.6,28.4,53,30.11,10.0,Calm,Calm,-,N/A,,Overcast,0,2012-01-19 23:55:00
7:15 PM,44.6,30.2,57,30.11,10.0,SW,4.6,-,N/A,,Overcast,220,2012-01-20 00:15:00
7:35 PM,42.8,28.4,57,30.09,10.0,South,3.5,-,N/A,,Scattered Clouds,180,2012-01-20 00:35:00
7:55 PM,42.8,28.4,57,30.08,10.0,South,5.8,-,N/A,,Clear,170,2012-01-20 00:55:00
8:15 PM,42.8,28.4,57,30.08,10.0,South,4.6,-,N/A,,Clear,190,2012-01-20 01:15:00
8:35 PM,42.8,28.4,57,30.07,10.0,South,4.6,-,N/A,,Clear,180,2012-01-20 01:35:00
8:55 PM,41.0,28.4,61,30.07,10.0,South,3.5,-,N/A,,Clear,190,2012-01-20 01:55:00
9:15 PM,39.2,28.4,65,30.08,10.0,SSW,5.8,-,N/A,,Clear,210,2012-01-20 02:15:00
9:35 PM,41.0,28.4,61,30.08,10.0,SW,9.2,-,N/A,,Clear,220,2012-01-20 02:35:00
9:55 PM,42.8,28.4,57,30.07,10.0,SW,8.1,-,N/A,,Clear,220,2012-01-20 02:55:00
10:15 PM,42.8,28.4,57,30.08,10.0,SW,8.1,-,N/A,,Clear,220,2012-01-20 03:15:00
10:35 PM,42.8,30.2,61,30.08,10.0,SW,8.1,-,N/A,,Clear,230,2012-01-20 03:35:00
10:55 PM,41.0,30.2,65,30.09,10.0,SW,9.2,-,N/A,,Clear,230,2012-01-20 03:55:00
11:15 PM,39.2,30.2,70,30.09,10.0,SW,8.1,-,N/A,,Clear,220,2012-01-20 04:15:00
11:35 PM,39.2,30.2,70,30.10,10.0,SW,6.9,-,N/A,,Clear,230,2012-01-20 04:35:00
11:55 PM,39.2,30.2,70,30.10,10.0,SW,4.6,-,N/A,,Clear,230,2012-01-20 04:55:00